[[{"header":{"parameterUnit":"m.s-1","parameterCategory":1,"la1":30.2991,"la2":30.254,"lo1":-89.0895,"lo2":-89.0444,"dy":0.0017,"dx":0.0017,"nx":28,"ny":28,"refTime":"2024-05-04T21:00:00:Z","depth":0,"parameterNumber":2,"parameterNumberName":"U-component_of_WINDS"},"data":[0,0,0,0,0,0,0,0,0,0,0,0,0,0,0,0,0,0,0,0,0,0,0,0,0,0,0,0,0,0,0,0,0,0,0,0,0,0,0,0,0,0,0,0,0,0,0,0,0,0,0,0,0,0,0,0,0,0,-1.21,-1.2099,0,-1.2034,-1.2033,-1.2032,-1.1969,-1.1968,-1.1967,-1.1966,-1.1902,-1.1901,-1.1901,0,0,0,0,0,0,0,0,0,0,0,0,0,-1.2173,-1.2172,-1.21,-1.2099,-1.2098,-1.2034,-1.2033,-1.2032,-1.1969,-1.1968,-1.1967,-1.1966,-1.1903,-1.1902,-1.19,0,0,0,0,0,0,0,0,0,0,0,0,0,-1.2128,-1.2172,-1.21,-1.2059,-1.2054,-1.2034,-1.2033,-1.2032,-1.1969,-1.1968,-1.1967,-1.1966,-1.1903,-1.1902,-1.19,-1.1916,0,0,-1.1896,-1.1895,0,0,0,0,0,0,0,0,-1.213,-1.2125,-1.2066,-1.2061,-1.2057,-1.2008,-1.2035,-1.1993,-1.197,-1.2002,-1.1966,-1.1965,-1.1939,-1.1934,-1.1925,-1.1913,-1.191,-1.1896,-1.1895,-1.1894,-1.1894,0,0,0,0,0,0,0,-1.2134,-1.2128,-1.2074,-1.2065,-1.2059,-1.2044,-1.2036,-1.2027,-1.1978,-1.1999,-1.1994,-1.1987,-1.1936,-1.1926,-1.1923,-1.191,-1.1896,-1.1895,-1.1894,-1.1893,-1.1907,-1.1908,0,0,0,0,0,0,-1.2143,-1.2131,-1.2076,-1.2072,-1.2091,-1.2044,-1.2035,-1.2025,-1.1978,-1.197,-1.1988,-1.1984,-1.1929,-1.1925,-1.192,-1.1936,-1.1894,-1.1893,-1.1892,-1.1906,-1.1907,-1.1908,0,0,0,0,0,0,-1.2144,-1.2138,-1.2078,-1.21,-1.2091,-1.2044,-1.2033,-1.2024,-1.2014,-1.197,-1.1961,-1.1987,-1.1928,-1.1922,-1.1917,-1.1933,-1.1892,-1.1891,-1.1904,-1.1906,-1.1908,-1.1967,0,0,0,0,0,0,-1.2147,-1.2139,-1.2145,-1.21,-1.209,-1.2076,-1.2034,-1.2024,-1.2012,-1.2006,-1.1966,-1.1959,-1.1927,-1.192,-1.1916,-1.193,-1.189,-1.1903,-1.1905,-1.1907,-1.1963,-1.197,-1.1976,0,0,0,0,0,-1.215,-1.2165,-1.2145,-1.2139,-1.2095,-1.2077,-1.2071,-1.2033,-1.2013,-1.2018,-1.1989,-1.196,-1.1931,-1.192,-1.1915,-1.1929,-1.1902,-1.1904,-1.1907,-1.196,-1.1969,-1.1976,0,0,0,0,0,0,-1.2214,-1.2158,-1.2136,-1.2137,-1.2112,-1.2066,-1.2072,-1.2044,-1.2025,-1.2021,-1.1975,-1.1967,-1.1967,-1.1947,-1.1935,-1.1941,-1.1912,-1.1914,-1.1955,-1.1962,-1.1969,-1.1974,-1.1889,0,0,0,0,0,-1.2228,-1.2216,-1.2169,-1.2174,-1.2163,-1.212,-1.211,-1.2083,-1.2056,-1.2045,-1.2016,-1.1992,-1.1977,-1.1968,-1.1952,-1.196,-1.195,-1.1967,-1.1973,-1.1979,-1.1981,-1.1983,-1.199,-1.1917,-1.1917,-1.1917,0,0,-1.2257,-1.2225,-1.2221,-1.2186,-1.2164,-1.2154,-1.2111,-1.2103,-1.2095,-1.2044,-1.2037,-1.2015,-1.1985,-1.1986,-1.1985,-1.1969,-1.1999,-1.1982,-1.1987,-1.1987,-1.1987,-1.1994,-1.2,-1.1919,-1.1919,-1.1919,0,0,-1.2306,-1.228,-1.2282,-1.226,-1.2225,-1.2196,-1.2196,-1.2154,-1.2137,-1.2129,-1.209,-1.2081,-1.2057,-1.2036,-1.2023,-1.2062,-1.2034,-1.2058,-1.2093,-1.2096,-1.2101,-1.2106,-1.2121,-1.2126,-1.206,-1.2061,-1.2061,0,-1.2347,-1.233,-1.2287,-1.228,-1.2266,-1.2217,-1.2219,-1.2199,-1.2163,-1.2154,-1.2137,-1.2104,-1.2081,-1.2076,-1.2085,-1.2076,-1.2075,-1.2063,-1.2104,-1.2108,-1.2112,-1.2125,-1.2131,-1.2064,-1.2063,-1.2063,-1.2063,0,-1.2382,-1.2371,-1.2376,-1.234,-1.2326,-1.2324,-1.2281,-1.2272,-1.2246,-1.2218,-1.2211,-1.218,-1.2157,-1.2153,-1.2128,-1.2145,-1.2136,-1.2112,-1.2082,-1.2123,-1.2135,-1.2139,-1.2068,-1.2067,-1.2066,-1.2065,0,0,-1.2472,-1.241,-1.2413,-1.2395,-1.2353,-1.2343,-1.2339,-1.2314,-1.2308,-1.2283,-1.2279,-1.2258,-1.2235,-1.222,-1.2191,-1.2193,-1.2226,-1.2169,-1.2167,-1.2181,-1.2244,-1.2263,-1.227,-1.2207,-1.2208,-1.2208,-1.2246,0,-1.2514,-1.2502,-1.2462,-1.2462,-1.245,-1.2403,-1.2399,-1.2373,-1.2347,-1.2334,-1.2305,-1.2292,-1.2262,-1.2252,-1.2252,-1.2223,-1.2239,-1.2219,-1.2203,-1.2203,-1.2213,-1.2275,-1.2296,-1.2334,-1.2251,-1.2251,-1.2252,0,-1.2562,-1.2539,-1.2538,-1.2494,-1.2488,-1.2485,-1.2459,-1.2447,-1.2416,-1.2397,-1.2379,-1.2347,-1.2339,-1.2311,-1.23,-1.2288,-1.2279,-1.2263,-1.2264,-1.2262,-1.2231,-1.2276,-1.2345,-1.2351,-1.2258,-1.2258,-1.2257,0,-1.2629,-1.2597,-1.2592,-1.2578,-1.2527,-1.2526,-1.2505,-1.2473,-1.246,-1.2438,-1.2429,-1.2407,-1.2395,-1.2378,-1.2341,-1.2323,-1.2335,-1.2303,-1.232,-1.2321,-1.2326,-1.2326,-1.2395,-1.2318,-1.2318,-1.2318,-1.2318,0,-1.2681,-1.2682,-1.262,-1.2618,-1.2617,-1.2571,-1.2572,-1.2547,-1.2518,-1.251,-1.2467,-1.2461,-1.2411,-1.2399,-1.2369,-1.2365,-1.236,-1.2345,-1.2337,-1.2349,-1.2351,-1.2344,-1.2341,-1.2319,-1.2319,-1.2319,-1.2318,0,-1.2756,-1.2715,-1.2706,-1.2657,-1.2645,-1.2647,-1.2606,-1.2602,-1.2572,-1.2562,-1.2557,-1.2511,-1.2494,-1.2454,-1.2427,-1.2407,-1.2412,-1.2397,-1.2422,-1.2417,-1.2436,-1.2436,-1.2504,-1.251,-1.2429,-1.243,-1.243,0,-1.2793,-1.2792,-1.2743,-1.2733,-1.2713,-1.2699,-1.2685,-1.264,-1.2627,-1.2591,-1.2591,-1.257,-1.2552,-1.2527,-1.2492,-1.2471,-1.2456,-1.2481,-1.2453,-1.2465,-1.2457,-1.2458,-1.2458,-1.2488,-1.2489,-1.249,-1.2491,0,-1.2863,-1.2842,-1.2823,-1.2797,-1.2781,-1.2759,-1.2735,-1.273,-1.2678,-1.2666,-1.2647,-1.2633,-1.2604,-1.2584,-1.2557,-1.2536,-1.2506,-1.2499,-1.2502,-1.2516,-1.253,-1.2523,-1.244,-1.2499,-1.2498,-1.2497,-1.2497,-1.2497,-1.292,-1.2917,-1.2882,-1.2862,-1.2838,-1.2816,-1.2809,-1.2777,-1.276,-1.2732,-1.2706,-1.269,-1.2658,-1.2618,-1.2599,-1.2586,-1.2571,-1.2575,-1.2576,-1.2578,-1.2584,-1.2531,-1.2581,-1.2581,-1.2581,-1.2581,-1.258,0,-1.2989,-1.2963,-1.2945,-1.2911,-1.2895,-1.2865,-1.2836,-1.2825,-1.2811,-1.2783,-1.2765,-1.2743,-1.2723,-1.2685,-1.2662,-1.2659,-1.2644,-1.2655,-1.2655,-1.2651,-1.2599,-1.2599,-1.2667,-1.2667,-1.2667,-1.2667,-1.2667,-1.2667,-1.3023,-1.3016,-1.299,-1.2971,-1.2945,-1.2928,-1.2914,-1.2893,-1.287,-1.2847,-1.2829,-1.2804,-1.2772,-1.2746,-1.2727,-1.2716,-1.271,-1.2725,-1.2711,-1.2663,-1.2655,-1.2647,-1.2647,-1.2724,-1.2724,-1.2764,-1.2764,-1.2764]},{"header":{"parameterUnit":"m.s-1","parameterCategory":1,"la1":30.2991,"la2":30.254,"lo1":-89.0895,"lo2":-89.0444,"dy":0.0017,"dx":0.0017,"nx":28,"ny":28,"refTime":"2024-05-04T21:00:00:Z","depth":0,"parameterNumber":3,"parameterNumberName":"V-component_of_WINDS"},"data":[0,0,0,0,0,0,0,0,0,0,0,0,0,0,0,0,0,0,0,0,0,0,0,0,0,0,0,0,0,0,0,0,0,0,0,0,0,0,0,0,0,0,0,0,0,0,0,0,0,0,0,0,0,0,0,0,0,0,2.6299,2.6299,0,2.631,2.6311,2.6311,2.6299,2.6298,2.6298,2.6297,2.6308,2.6309,2.631,0,0,0,0,0,0,0,0,0,0,0,0,0,2.6265,2.6266,2.6299,2.6299,2.6299,2.631,2.6311,2.6311,2.6299,2.6298,2.6298,2.6297,2.6308,2.6309,2.631,0,0,0,0,0,0,0,0,0,0,0,0,0,2.6279,2.6266,2.6299,2.6295,2.6294,2.631,2.6311,2.6311,2.6299,2.6298,2.6298,2.6297,2.6308,2.6309,2.631,2.633,0,0,2.6313,2.6313,0,0,0,0,0,0,0,0,2.6278,2.628,2.6295,2.6295,2.6295,2.6302,2.6303,2.6317,2.6299,2.6297,2.6297,2.6297,2.6307,2.6308,2.6311,2.6331,2.6331,2.6313,2.6314,2.6314,2.6314,0,0,0,0,0,0,0,2.6277,2.6279,2.6303,2.6295,2.6295,2.6292,2.6293,2.6305,2.6306,2.6297,2.6296,2.6298,2.6306,2.631,2.6312,2.6331,2.6313,2.6314,2.6315,2.6315,2.6368,2.6369,0,0,0,0,0,0,2.6277,2.6279,2.6303,2.6304,2.6284,2.6293,2.6294,2.6301,2.6305,2.6306,2.6299,2.6297,2.6309,2.631,2.6312,2.6336,2.6314,2.6315,2.6316,2.6367,2.6368,2.6369,0,0,0,0,0,0,2.6276,2.6279,2.6303,2.6291,2.6294,2.6294,2.6302,2.6301,2.6305,2.6307,2.6306,2.6303,2.6308,2.631,2.6326,2.6337,2.6316,2.6317,2.6366,2.6367,2.6368,2.6385,0,0,0,0,0,0,2.6275,2.6279,2.6287,2.6291,2.6294,2.6317,2.6302,2.6302,2.6307,2.6306,2.631,2.631,2.6308,2.6324,2.6327,2.6338,2.6317,2.6365,2.6367,2.6368,2.6384,2.6387,2.6389,0,0,0,0,0,2.6274,2.6291,2.6287,2.629,2.6305,2.6317,2.6319,2.6316,2.6308,2.6316,2.6317,2.631,2.6335,2.6326,2.6329,2.634,2.6365,2.6366,2.6368,2.6382,2.6386,2.6389,0,0,0,0,0,0,2.6287,2.6291,2.6288,2.6307,2.6312,2.6315,2.6325,2.632,2.6328,2.6326,2.6322,2.6323,2.6339,2.6341,2.6331,2.636,2.6348,2.6351,2.6358,2.6362,2.6365,2.6364,2.6318,0,0,0,0,0,2.6293,2.6303,2.6306,2.6322,2.6325,2.6325,2.633,2.6328,2.6333,2.6335,2.6337,2.6342,2.635,2.6356,2.6364,2.6384,2.6385,2.6393,2.6396,2.6398,2.64,2.6411,2.6414,2.6374,2.6374,2.6374,0,0,2.6303,2.6307,2.6314,2.6325,2.6329,2.6339,2.6327,2.6338,2.6346,2.6336,2.6351,2.6353,2.6358,2.6375,2.6383,2.6377,2.6411,2.64,2.6402,2.6403,2.6413,2.6417,2.642,2.6376,2.6375,2.6375,0,0,2.6328,2.6332,2.6346,2.6351,2.6356,2.6356,2.636,2.6364,2.6365,2.638,2.6373,2.6381,2.6397,2.6401,2.6405,2.6431,2.6425,2.6434,2.6449,2.6459,2.6462,2.6465,2.6474,2.6478,2.6436,2.6436,2.6436,0,2.6341,2.6357,2.6354,2.6366,2.6372,2.6364,2.6378,2.6382,2.639,2.6394,2.6387,2.6406,2.6409,2.6427,2.6434,2.6437,2.6441,2.6433,2.6462,2.6465,2.6467,2.6476,2.648,2.6437,2.6437,2.6437,2.6437,0,2.6372,2.6383,2.6394,2.6403,2.6409,2.6422,2.6421,2.6427,2.6424,2.6424,2.644,2.6443,2.6451,2.6456,2.6453,2.6474,2.647,2.6463,2.6451,2.6472,2.6481,2.6484,2.6439,2.6438,2.6438,2.6438,0,0,2.6406,2.6413,2.6417,2.6421,2.6427,2.6435,2.6448,2.6457,2.6462,2.6468,2.6478,2.6492,2.6485,2.649,2.6487,2.6496,2.6517,2.6488,2.6488,2.6493,2.654,2.6545,2.655,2.6513,2.6514,2.6514,2.654,0,2.6431,2.6454,2.6452,2.6473,2.6483,2.6476,2.6486,2.6491,2.6492,2.65,2.65,2.651,2.6501,2.6503,2.6512,2.6513,2.6526,2.6511,2.6522,2.6523,2.6521,2.6554,2.656,2.6584,2.6543,2.6543,2.6544,0,2.6464,2.6471,2.6494,2.6498,2.6502,2.6512,2.652,2.6528,2.6533,2.6533,2.6538,2.6534,2.6546,2.6534,2.6551,2.6541,2.6545,2.6546,2.6547,2.6548,2.6535,2.6556,2.6591,2.6595,2.6549,2.6549,2.6548,0,2.6486,2.6502,2.6517,2.6521,2.6526,2.6534,2.6536,2.654,2.6546,2.6553,2.6556,2.6564,2.6569,2.6575,2.6573,2.6564,2.659,2.6578,2.659,2.659,2.6596,2.6595,2.6632,2.6599,2.6599,2.6599,2.6598,0,2.6515,2.6529,2.6528,2.6537,2.6552,2.6549,2.6564,2.6566,2.657,2.6579,2.6573,2.6582,2.6579,2.6587,2.6586,2.66,2.6602,2.6602,2.6601,2.6603,2.6603,2.6606,2.6604,2.6599,2.6599,2.6599,2.6599,0,2.6543,2.6543,2.6559,2.6563,2.6564,2.6575,2.6579,2.6587,2.6587,2.6599,2.6602,2.6602,2.6612,2.661,2.6621,2.662,2.6637,2.6635,2.6636,2.6635,2.6648,2.6647,2.6688,2.6693,2.6656,2.6656,2.6657,0,2.6561,2.6572,2.6577,2.6583,2.6586,2.6596,2.6602,2.6599,2.6605,2.6612,2.662,2.6629,2.6636,2.6652,2.6653,2.6661,2.6659,2.6672,2.666,2.6661,2.6659,2.6658,2.6659,2.6675,2.6675,2.6676,2.6676,0,2.6594,2.6593,2.6602,2.661,2.6617,2.6624,2.663,2.6635,2.6633,2.664,2.665,2.6656,2.6667,2.6676,2.6684,2.6686,2.6681,2.668,2.6683,2.6685,2.6685,2.6685,2.6643,2.6679,2.6679,2.6679,2.6678,2.6678,2.6617,2.6627,2.6632,2.6642,2.6646,2.6651,2.666,2.6661,2.667,2.6679,2.6676,2.6688,2.6692,2.6702,2.6705,2.6714,2.6709,2.6714,2.6715,2.6716,2.6718,2.6684,2.6715,2.6715,2.6715,2.6715,2.6715,0,2.665,2.6653,2.6662,2.6671,2.6678,2.6673,2.6679,2.6686,2.6696,2.6701,2.6708,2.672,2.6729,2.673,2.6739,2.6745,2.6743,2.6748,2.6747,2.6748,2.6722,2.6718,2.6749,2.6749,2.6749,2.6749,2.6749,2.6749,2.6668,2.6683,2.6683,2.67,2.6702,2.6714,2.6718,2.6723,2.6727,2.674,2.6748,2.6749,2.6752,2.6761,2.6769,2.6769,2.6772,2.6778,2.6777,2.6753,2.6749,2.6746,2.6743,2.6779,2.6779,2.6802,2.6803,2.6803]}]]